Preview of NWS' New Version of Forecast
This preview is not operational and should not be used for support decisions.
Latest weather observations around

Windsor Locks, Bradley International Airport (KBDL)

Using English Units (Switch to International System of Units)
Date/ Time (EST) Wind (mph) Vis. (mi) Weather Sky Cond. Temp (°F) Rel. Humidity Wind Chill (°F) Heat Index (°F) Pressure Precip. (in)
Air Dwpt 6 hour Altimeter (inHg) Sea level (inHg) 1 hr 3 hr 6 hr
Max Min
Feb 19 09:51 N 5 10 Mostly Cloudy BKN250 24 4     41% 18   30.52 30.52      
Feb 19 08:51 Calm 10 Mostly Cloudy BKN250 19 5     54%     30.51 30.51      
Feb 19 07:51 W 3 10 Partly Cloudy SCT250 16 3     56% 11   30.49 30.5      
Feb 19 06:51 Calm 10 Clear   12 3     67%     30.44 30.45      
Feb 19 05:51 WSW 3 10 Clear CLR 17 4     56% 12   30.42 30.43      
Feb 19 04:51 W 3 10 Clear CLR 16 3     56% 11   30.4 30.41      
Feb 19 03:51 NW 9 10 Clear CLR 17 4     56% 6   30.38 30.38      
Feb 19 02:51 NW 11 10 Clear CLR 18 5     56% 5   30.36 30.37      
Feb 19 01:51 NW 11 10 Clear CLR 19 4     51% 7   30.34 30.35      
Feb 19 00:51 NNW 7 10 Mostly Clear FEW030 19 6     56% 10   30.33 30.34      
Feb 18 23:51 NW 15 10 Mostly Clear FEW031 21 9     59% 8   30.3 30.3      
Feb 18 22:51 NNW 18 10 Partly Cloudy SCT029 23 11     59% 9   30.25 30.26      
Feb 18 21:51   10 Mostly Clear FEW030 24 14     65%     30.21 30.22      
Feb 18 20:51 NNW 10 10 Mostly Clear FEW035 25 15     66% 15   30.17 30.18      
Feb 18 19:51 NNW 14 10 Mostly Clear FEW032 27 16     63% 16   30.12 30.12      
Feb 18 18:51 NW 16 10 Mostly Clear FEW032 29 18     63% 17   30.07 30.07     0
Feb 18 17:51 NW 9 10 Partly Cloudy SCT032 SCT045 30 19     63% 22   30.01 30.01      
Feb 18 16:51 NW 11 10 Mostly Clear FEW014 FEW037 FEW200 31 19     61% 22   29.95 29.95      
Feb 18 16:06   10 Partly Cloudy FEW014 SCT026 SCT035 34 23     64%     29.9        
Feb 18 15:51   10 Mostly Cloudy FEW014 BKN028 BKN037 33 26     75%     29.89 29.89   0  
Feb 18 14:51 Calm 10 Cloudy FEW010 FEW025 OVC037 32 28     85%     29.85 29.85 0    
Feb 18 14:31 Calm 10 Mostly Cloudy FEW009 SCT024 BKN042 33 27     78%     29.83   0    
Feb 18 13:51 N 5 9 Light Snow FEW008 SCT011 OVC025 32 27     81% 27   29.83 29.84 0    
Feb 18 13:49 NNE 5 9 Light Snow FEW008 SCT011 OVC025 32 27     80% 27   29.83   0    
Feb 18 13:18 NNW 3 8 Light Snow FEW008 BKN011 OVC031 31 27     85% 28   29.83   0    
Feb 18 12:58 NNW 5 9 Light Snow FEW008 SCT011 OVC033 31 27     85% 26   29.82   0    
Feb 18 12:51 NNW 5 2 Light Snow FEW007 BKN010 OVC035 31 26     82% 26   29.82 29.83 0   0
Feb 18 12:47 NNW 5 2 Light Snow FEW007 BKN010 OVC035 30 27     86% 25   29.82   0    
Feb 18 12:26 Calm 2 Light Snow and Fog/Mist FEW008 SCT030 OVC037 31 28     89%     29.82   0    
Feb 18 12:22 Calm 1 Light Snow and Fog/Mist FEW008 BKN030 OVC040 31 28     89%     29.82   0    
Feb 18 11:54 NW 6 1 Light Snow and Fog/Mist SCT008 BKN025 OVC033 31 27     85% 25   29.82   0    
Feb 18 11:51 N 3 2.5 Light Snow and Fog/Mist SCT008 BKN025 OVC035 31 27     85% 28   29.83 29.83 0    
Feb 18 11:46 NW 6 3 Light Snow and Fog/Mist SCT008 BKN025 OVC035 30 27     86% 24   29.83   0    
Feb 18 10:51 N 6 1 Light Snow and Fog/Mist FEW006 SCT015 OVC020 31 27     85% 25   29.82 29.82 0    
Feb 18 10:08 N 8 1 Light Snow and Fog/Mist FEW005 BKN013 OVC019 30 27     88% 22   29.82   0    
Feb 18 09:51 N 6 1 Light Freezing Drizzle and Snow and Fog/Mist FEW007 SCT011 OVC020 30 27     88% 24   29.82 29.83 0 0  
Feb 18 09:19 N 6 1 Light Snow and Fog/Mist SCT005 BKN011 OVC020 29 27     92% 23   29.82   0    
Feb 18 08:51 N 7 1 Light Freezing Drizzle and Snow and Fog/Mist BKN005 OVC011 29 27     92% 22   29.82 29.82 0    
Feb 18 08:31 N 8 1 Light Freezing Drizzle and Snow and Fog/Mist BKN005 OVC011 29 27     92% 21   29.82   0    
Feb 18 07:58 N 7 1 Light Freezing Drizzle and Snow and Fog/Mist FEW005 BKN011 OVC019 29 27     92% 22   29.82   0    
Feb 18 07:51 NNE 6 1 Light Snow and Fog/Mist BKN011 OVC019 29 27     92% 23   29.82 29.83 0    
Feb 18 07:24 N 7 1 Light Snow and Fog/Mist BKN013 OVC020 29 27     92% 22   29.83   0    
Feb 18 06:51 N 8 1 Light Snow and Fog/Mist FEW004 BKN015 OVC022 28 26     92% 20   29.83 29.84 0   0
Feb 18 06:47 N 8 1 Light Snow and Fog/Mist FEW004 BKN017 OVC022 28 27     93% 20   29.82   0    
Feb 18 06:38 N 8 2.5 Light Snow and Fog/Mist FEW005 BKN017 OVC028 29 26     89% 21   29.83   0    
Feb 18 05:51 N 6 5 Light Snow and Fog/Mist FEW004 FEW009 OVC017 29 26     89% 23   29.85 29.85 0    
Feb 18 05:43 N 6 3 Light Snow and Fog/Mist FEW004 SCT009 OVC016 29 26     89% 23   29.85   0    
Feb 18 05:32 N 3 2 Light Snow and Fog/Mist FEW004 FEW009 OVC019 29 26     89% 25   29.85   0    
Feb 18 05:03 NE 5 1.5 Light Snow and Fog/Mist FEW005 OVC020 28 26     92% 23   29.85   0    
Feb 18 04:51 NE 5 2 Light Snow and Fog/Mist SCT005 SCT018 OVC023 28 26     92% 23   29.86 29.87 0    
Feb 18 04:37 NE 3 2.5 Clear   29 26     89% 25   29.87   0    
Feb 18 04:35 ENE 3 2.5 Clear   29 26     89% 25   29.87   0    
Feb 18 04:05 NNE 5 1 Clear   29 26     89% 24   29.89   0    
Feb 18 03:51 NE 5 1 Clear   29 26     89% 24   29.88 29.89 0 0  
Feb 18 03:16 E 5 1 Light Snow and Fog/Mist VV012 28 26     92% 23   29.89   0    
Feb 18 02:51 NE 3 0.75 Light Snow and Fog/Mist VV010 29 26     89% 25   29.91 29.91 0    
Feb 18 02:35 Calm 0.75 Light Snow and Fog/Mist VV010 29 26     89%     29.93   0    
Feb 18 02:29 Calm 1 Light Snow and Fog/Mist VV014 29 26     89%     29.93   0    
Feb 18 02:17 E 3 1.25 Light Snow and Fog/Mist SCT008 OVC020 29 26     89% 25   29.94   0    
Feb 18 02:08 Calm 2 Light Snow and Fog/Mist SCT008 OVC026 29 26     89%     29.95   0    
Feb 18 01:51 Calm 2.5 Light Snow and Fog/Mist BKN007 BKN030 OVC038 29 26     89%     29.95 29.95 0    
Feb 18 01:42 E 3 2 Light Snow and Fog/Mist BKN007 OVC029 29 26     89% 25   29.94   0    
Feb 18 01:35 Calm 4 Light Snow and Fog/Mist SCT007 SCT027 OVC043 29 26     89%     29.95   0    
Feb 18 00:57 E 5 2 Light Snow and Fog/Mist FEW005 OVC024 29 26     89% 24   29.97   0    
Feb 18 00:51 E 3 3 Light Snow and Fog/Mist FEW005 BKN023 OVC040 29 26     89% 25   29.98 29.98 0   0
Feb 18 00:40 E 3 4 Light Snow and Fog/Mist FEW005 SCT023 OVC040 29 27     92% 25   29.98   0    
Feb 18 00:37 Calm 2.5 Light Snow and Fog/Mist FEW005 BKN023 OVC040 29 27     92%     29.99   0    
Feb 18 00:30 SSE 5 1 Light Snow and Fog/Mist FEW004 OVC016 29 27     92% 24   29.99   0    
Feb 18 00:15 SSE 5 1 Light Snow and Fog/Mist FEW004 OVC011 29 27     92% 24   29.99   0    
Feb 17 23:51 SE 5 0.25 Snow and Fog VV005 29 27     92% 24   29.99 30 0    
Feb 17 23:02 SSW 3 0.75 Light Snow and Fog/Mist VV008 29 26     89% 25   30   0    
Feb 17 22:49 S 6 0.5 Snow and Fog VV014 29 26     89% 23   30 30.01 0    
Feb 17 22:48 S 6 0.75 Light Snow and Fog/Mist VV014 28 27     93% 22   30   0    
Feb 17 22:39 SSW 6 2 Light Snow BKN023 OVC030 30 25     81% 24   30.01   0    
Feb 17 21:51 S 8 10 Cloudy BKN050 OVC070 33 17     51% 26   30 30.01      
Feb 17 20:51 SSW 9 10 Cloudy BKN070 OVC090 33 15     47% 25   30.02 30.02      
Feb 17 19:51 SSE 6 10 Cloudy OVC090 34 17     50% 29   30.02 30.02      
Feb 17 18:51 S 7 10 Mostly Cloudy BKN120 BKN160 34 16     47% 28   30.03 30.04      
Feb 17 17:51 SSE 6 10 Mostly Clear FEW150 FEW250 32 14     47% 26   30.03 30.03      
Feb 17 16:51 SSE 8 10 Mostly Clear FEW110 FEW150 FEW250 36 12     37% 30   30.02 30.03      
Feb 17 15:51 SE 9 10 Partly Cloudy FEW110 FEW150 SCT250 37 13     37% 30   30.03 30.03      
Feb 17 14:51 ESE 10 10 Partly Cloudy FEW150 SCT250 37 13     37% 30   30.05 30.06      
Feb 17 13:51 5 10 Partly Cloudy SCT250 36 10     34% 32   30.1 30.11      
Feb 17 12:51 NNE 7 10 Mostly Clear FEW250 34 9     35% 28   30.09 30.09      
Feb 17 11:51 5 10 Mostly Clear FEW250 33 12     41% 29   30.09 30.1      
Feb 17 10:51 NE 5 10 Mostly Clear FEW250 31 11     43% 26   30.14 30.14      
Feb 17 09:51 NNE 8 10 Mostly Clear FEW250 29 12     49% 21   30.15 30.16      
Feb 17 08:51 NNW 10 10 Mostly Clear FEW250 26 11     52% 16   30.16 30.16      
Feb 17 07:51 NNW 8 10 Mostly Clear FEW250 23 11     59% 14   30.12 30.13      
Feb 17 06:51 NW 6 10 Mostly Clear FEW250 20 11     68% 12   30.1 30.1      
Feb 17 05:51 NNW 6 10 Clear CLR 21 11     65% 13   30.1 30.1      
Feb 17 04:51 NW 8 10 Clear CLR 21 12     68% 11   30.09 30.09      
Feb 17 03:51 NNW 6 10 Clear CLR 22 12     65% 14   30.04 30.04      
Feb 17 02:51 WNW 5 10 Mostly Clear FEW250 23 13     65% 17   30.06 30.06      
Feb 17 01:51 NW 7 10 Mostly Clear FEW250 24 13     62% 16   30.06 30.07      
Feb 17 00:51 NW 8 10 Clear   25 14     63% 16   30.05 30.05      
Feb 16 23:51 NNW 6 10 Mostly Cloudy FEW200 BKN250 26 14     60% 19   30.03 30.03      
Feb 16 22:51 NW 9 10 Partly Cloudy FEW200 SCT250 27 14     58% 18   30 30.01      
Feb 16 21:51 NNW 14 10 Mostly Clear FEW220 28 14     55% 17   29.98 29.99      
Feb 16 20:51 NNW 6 10 Clear CLR 29 15     56% 23   29.98 29.98      
Feb 16 19:51 NNW 11 10 Clear CLR 30 15     53% 21   29.95 29.95      
Feb 16 18:51 NW 13 10 Mostly Clear FEW200 31 16     53% 21   29.94 29.95      
Feb 16 17:51 NNW 13 10 Mostly Clear FEW200 33 16     49% 24   29.9 29.91      
Feb 16 16:51 NNW 14 10 Mostly Clear FEW200 36 17     46% 27   29.86 29.87      
Feb 16 15:51   10 Mostly Clear FEW045 FEW200 38 18     44%     29.84 29.85      
Feb 16 14:51 NNW 13 10 Mostly Clear FEW045 FEW200 39 19     44% 31   29.83 29.83      
Feb 16 13:51 NNW 13 10 Mostly Clear FEW045 FEW200 39 20     46% 31   29.82 29.83      
Feb 16 12:51 NW 11 10 Mostly Clear FEW044 FEW200 38 19     46% 30   29.83 29.83      
Feb 16 11:51 WNW 15 10 Partly Cloudy SCT044 SCT200 37 19     48% 28   29.83 29.84      
Feb 16 10:51 NNW 14 10 Mostly Clear FEW045 FEW200 38 19     46% 30   29.84 29.85      
May 15 09:43 S 10 2 Haze OVC005 65 60     84%     29.86        
May 14 11:51 7 10 Mostly Cloudy BKN022 62 52     70%     30 30      
May 13 20:00 SSW 8 10 Cloudy BKN014 OVC100 54 49     83%     30.1        
May 13 17:51 SW 9 10 Mostly Cloudy FEW025 SCT110 BKN130 57 48     72%     30.1 30.1      
Jun 10 10:51 SSW 9 10 Mostly Cloudy FEW070 SCT095 BKN250 80 53     39%   80 29.97 29.97      
Jun 07 15:51 6 10 Mostly Clear FEW060 FEW080 74 45     36%   73 29.95 29.94      
Jun 07 09:51 N 10 10 Mostly Cloudy FEW020 BKN055 58 49     72%     29.99 29.99